When you browse on this site, cookies collect data to enhance your experience and personalize the content and advertising you see.
Visit our Privacy Policy to learn more. By continuing to use the site, you agree to this use of cookies and data.
  • In Latvia
  • List of Countries
  • For 7 days
  • Water Temperature
  • Satellite Maps
  • Weather Map
  • Weather Widgets
  • user-avatar
    Login

    Hourly Weather Ondjiwa

    Today, 25 March, Monday

    Time Temperature Precipitation Wind Pressure Humidity
    00:00 +28°C° 0 mm 2 mps 667 mmHg 37%
    01:00 +28°C° 0 mm 2 mps 667 mmHg 36%
    02:00 +28°C° 0 mm 2 mps 667 mmHg 38%
    03:00 +28°C° 0 mm 2 mps 667 mmHg 40%
    04:00 +28°C° 0 mm 2 mps 667 mmHg 41%
    05:00 +27°C° 0 mm 2 mps 667 mmHg 44%
    06:00 +26°C° 0 mm 2 mps 667 mmHg 46%
    07:00 +25°C° 0 mm 2 mps 667 mmHg 49%
    08:00 +28°C° 0 mm 2 mps 668 mmHg 41%
    09:00 +31°C° 0 mm 3 mps 669 mmHg 33%
    10:00 +35°C° 0 mm 3 mps 669 mmHg 25%
    11:00 +36°C° 0 mm 3 mps 669 mmHg 21%
    12:00 +38°C° 0 mm 3 mps 669 mmHg 18%
    13:00 +39°C° 0 mm 3 mps 668 mmHg 14%
    14:00 +38°C° 0 mm 3 mps 667 mmHg 15%
    15:00 +38°C° 0 mm 2 mps 666 mmHg 16%
    16:00 +37°C° 0 mm 2 mps 666 mmHg 17%
    17:00 +35°C° 0 mm 1 mps 666 mmHg 19%
    18:00 +33°C° 0 mm 1 mps 665 mmHg 21%
    19:00 +32°C° 0 mm 1 mps 665 mmHg 23%
    20:00 +31°C° 0 mm 1 mps 666 mmHg 25%
    21:00 +30°C° 0 mm 1 mps 666 mmHg 27%
    22:00 +30°C° 0 mm 2 mps 667 mmHg 30%
    23:00 +29°C° 0 mm 2 mps 667 mmHg 32%

    Tomorrow, 26 March, Tuesday

    Time Temperature Precipitation Wind Pressure Humidity
    00:00 +28°C° 0 mm 2 mps 666 mmHg 34%
    01:00 +28°C° 0 mm 3 mps 666 mmHg 37%
    02:00 +27°C° 0 mm 2 mps 666 mmHg 40%
    03:00 +26°C° 0 mm 1 mps 666 mmHg 43%
    04:00 +26°C° 0 mm 1 mps 666 mmHg 47%
    05:00 +26°C° 0 mm 2 mps 666 mmHg 47%
    06:00 +25°C° 0 mm 3 mps 667 mmHg 48%
    07:00 +25°C° 0 mm 4 mps 667 mmHg 49%
    08:00 +28°C° 0 mm 3 mps 668 mmHg 45%
    09:00 +30°C° 0 mm 3 mps 668 mmHg 40%
    10:00 +32°C° 0 mm 2 mps 669 mmHg 35%
    11:00 +34°C° 0 mm 2 mps 669 mmHg 32%
    12:00 +35°C° 0 mm 2 mps 668 mmHg 29%
    13:00 +35°C° 0 mm 2 mps 667 mmHg 26%
    14:00 +35°C° 0 mm 2 mps 667 mmHg 27%
    15:00 +34°C° 0 mm 1 mps 667 mmHg 28%
    16:00 +33°C° 0 mm 1 mps 666 mmHg 29%
    17:00 +32°C° 0 mm 1 mps 666 mmHg 31%
    18:00 +31°C° 0 mm 2 mps 666 mmHg 33%
    19:00 +30°C° 0 mm 2 mps 667 mmHg 35%
    20:00 +29°C° 0.2 mm 2 mps 667 mmHg 38%
    21:00 +28°C° 0.2 mm 2 mps 668 mmHg 41%
    22:00 +28°C° 0.2 mm 1 mps 669 mmHg 44%
    23:00 +26°C° 0.7 mm 2 mps 668 mmHg 53%

    Day after tomorrow, 27 March, Wednesday

    Time Temperature Precipitation Wind Pressure Humidity
    00:00 +25°C° 0.7 mm 2 mps 668 mmHg 62%
    01:00 +24°C° 0.7 mm 3 mps 667 mmHg 71%
    02:00 +23°C° 0 mm 2 mps 667 mmHg 71%
    03:00 +23°C° 0 mm 2 mps 667 mmHg 72%
    04:00 +23°C° 0 mm 2 mps 667 mmHg 72%
    05:00 +23°C° 0 mm 1 mps 667 mmHg 70%
    06:00 +24°C° 0 mm 1 mps 668 mmHg 68%
    07:00 +24°C° 0 mm 1 mps 669 mmHg 67%
    08:00 +27°C° 0 mm 1 mps 669 mmHg 57%
    09:00 +29°C° 0 mm 1 mps 670 mmHg 47%
    10:00 +32°C° 0 mm 2 mps 671 mmHg 37%
    11:00 +34°C° 0 mm 2 mps 670 mmHg 35%
    12:00 +34°C° 0 mm 2 mps 670 mmHg 32%
    13:00 +34°C° 0 mm 1 mps 669 mmHg 29%
    14:00 +34°C° 0 mm 2 mps 668 mmHg 33%
    15:00 +32°C° 0 mm 2 mps 668 mmHg 36%
    16:00 +31°C° 0 mm 2 mps 667 mmHg 40%
    17:00 +30°C° 0 mm 2 mps 667 mmHg 43%
    18:00 +29°C° 0 mm 1 mps 668 mmHg 45%
    19:00 +27°C° 0 mm 1 mps 668 mmHg 48%
    20:00 +27°C° 0 mm 1 mps 668 mmHg 48%
    21:00 +27°C° 0 mm 1 mps 669 mmHg 49%
    22:00 +26°C° 0 mm 2 mps 669 mmHg 50%
    23:00 +26°C° 0 mm 2 mps 669 mmHg 49%

    28 March, Thursday

    Time Temperature Precipitation Wind Pressure Humidity
    00:00 +26°C° 0 mm 2 mps 669 mmHg 49%
    01:00 +26°C° 0 mm 2 mps 669 mmHg 48%
    02:00 +25°C° 0 mm 1 mps 669 mmHg 51%
    03:00 +24°C° 0 mm 1 mps 669 mmHg 54%
    04:00 +23°C° 0 mm 1 mps 668 mmHg 56%
    05:00 +23°C° 0 mm 1 mps 669 mmHg 57%
    06:00 +24°C° 0 mm 2 mps 670 mmHg 57%
    07:00 +24°C° 0 mm 2 mps 670 mmHg 57%
    08:00 +26°C° 0 mm 2 mps 671 mmHg 51%
    09:00 +29°C° 0 mm 3 mps 671 mmHg 44%
    10:00 +33°C° 0 mm 3 mps 672 mmHg 38%
    11:00 +33°C° 0 mm 3 mps 671 mmHg 36%
    12:00 +34°C° 0 mm 3 mps 670 mmHg 34%
    13:00 +34°C° 0 mm 3 mps 669 mmHg 33%
    14:00 +34°C° 0 mm 3 mps 669 mmHg 33%
    15:00 +34°C° 0 mm 4 mps 668 mmHg 34%
    16:00 +34°C° 0 mm 4 mps 668 mmHg 35%
    17:00 +31°C° 0 mm 3 mps 668 mmHg 39%
    18:00 +29°C° 0 mm 2 mps 668 mmHg 43%
    19:00 +28°C° 0 mm 2 mps 668 mmHg 47%
    20:00 +27°C° 0 mm 2 mps 668 mmHg 48%
    21:00 +27°C° 0 mm 2 mps 669 mmHg 48%
    22:00 +27°C° 0 mm 2 mps 669 mmHg 49%
    23:00 +26°C° 0 mm 2 mps 669 mmHg 50%

    29 March, Friday

    Time Temperature Precipitation Wind Pressure Humidity
    00:00 +25°C° 0 mm 2 mps 668 mmHg 52%
    01:00 +24°C° 0 mm 2 mps 668 mmHg 53%
    02:00 +24°C° 0 mm 2 mps 668 mmHg 55%
    03:00 +23°C° 0 mm 2 mps 667 mmHg 56%
    04:00 +23°C° 0 mm 1 mps 667 mmHg 58%
    05:00 +23°C° 0 mm 1 mps 668 mmHg 58%
    06:00 +23°C° 0 mm 1 mps 668 mmHg 58%
    07:00 +24°C° 0 mm 1 mps 669 mmHg 58%
    08:00 +27°C° 0 mm 2 mps 669 mmHg 48%
    09:00 +30°C° 0 mm 3 mps 670 mmHg 39%
    10:00 +35°C° 0 mm 3 mps 671 mmHg 29%
    11:00 +36°C° 0 mm 4 mps 670 mmHg 26%
    12:00 +37°C° 0 mm 4 mps 669 mmHg 24%
    13:00 +38°C° 0 mm 4 mps 669 mmHg 22%
    14:00 +36°C° 0 mm 3 mps 668 mmHg 25%
    15:00 +35°C° 0 mm 2 mps 667 mmHg 27%
    16:00 +34°C° 0 mm 2 mps 667 mmHg 30%
    17:00 +32°C° 0 mm 2 mps 667 mmHg 32%
    18:00 +31°C° 0 mm 1 mps 667 mmHg 33%
    19:00 +29°C° 0 mm 1 mps 667 mmHg 35%
    20:00 +29°C° 0.1 mm 2 mps 667 mmHg 36%
    21:00 +29°C° 0.1 mm 2 mps 668 mmHg 38%
    22:00 +29°C° 0.1 mm 2 mps 668 mmHg 40%
    23:00 +28°C° 0.1 mm 2 mps 668 mmHg 44%

    30 March, Saturday

    Time Temperature Precipitation Wind Pressure Humidity
    00:00 +27°C° 0.1 mm 2 mps 667 mmHg 47%
    01:00 +26°C° 0.1 mm 2 mps 667 mmHg 51%
    02:00 +26°C° 0 mm 2 mps 667 mmHg 53%
    03:00 +25°C° 0 mm 1 mps 667 mmHg 55%
    04:00 +24°C° 0 mm 1 mps 666 mmHg 57%
    05:00 +24°C° 0 mm 1 mps 667 mmHg 56%
    06:00 +24°C° 0 mm 1 mps 667 mmHg 56%
    07:00 +25°C° 0 mm 1 mps 668 mmHg 56%
    08:00 +28°C° 0 mm 1 mps 668 mmHg 48%
    09:00 +31°C° 0 mm 1 mps 669 mmHg 39%
    10:00 +35°C° 0 mm 2 mps 670 mmHg 31%
    11:00 +35°C° 0 mm 2 mps 669 mmHg 29%
    12:00 +35°C° 0 mm 2 mps 668 mmHg 27%
    13:00 +36°C° 0 mm 2 mps 668 mmHg 25%
    14:00 +36°C° 0 mm 2 mps 667 mmHg 24%
    15:00 +36°C° 0 mm 2 mps 667 mmHg 24%
    16:00 +36°C° 0 mm 2 mps 667 mmHg 23%
    17:00 +34°C° 0 mm 2 mps 667 mmHg 26%
    18:00 +32°C° 0 mm 2 mps 667 mmHg 30%
    19:00 +30°C° 0 mm 2 mps 667 mmHg 33%
    20:00 +29°C° 0 mm 1 mps 667 mmHg 34%
    21:00 +28°C° 0 mm 1 mps 667 mmHg 36%
    22:00 +28°C° 0 mm 1 mps 667 mmHg 37%
    23:00 +27°C° 0 mm 1 mps 667 mmHg 38%
    Show more